XM-5

Last updated on Sat Aug 15 2026 00:02:58 GMT+0000 (Coordinated Universal Time)

1 37185U 10053A 26226.54508931 -.00000038 00000+0 00000+0 0 9996 2 37185 0.0645 273.5139 0000751 321.9966 168.4730 1.00271145 58069
UTC large
Height (km)
Speed (km/s)
/
Latitude / Longitude
Inclination (degrees)
Orbital Period (minutes)
Azimuth
Elevation
Range (km)
Doppler Factor

Next 0 passes for location: London (51.5072 / 0.1276)

No passes found over London.
XM-5